Regional Weather Roundup
Issued by NWS Charleston, SC

Current Version | Previous Version | Graphics & Text | Print | Product List | Glossary On
Versions: 1 2 3 4 5 6 7 8 9 10 11 12 13 14 15 16 17 18 19 20 21 22 23 24 25 26 27 28 29 30 31 32 33 34 35 36 37 38 39 40 41 42 43 44 45 46 47 48 49 50
000
ASUS42 KCHS 010510
RWRCHS

REGIONAL WEATHER ROUNDUP
NATIONAL WEATHER SERVICE CHARLESTON SC
100 AM EDT FRI AUG 01 2014

NOTE: "FAIR" INDICATES FEW OR NO CLOUDS BELOW 12,000 FEET WITH NO
SIGNIFICANT WEATHER AND/OR OBSTRUCTIONS TO VISIBILITY.

NOT ALL STATIONS ARE QUALITY CONTROLLED BY THE NATIONAL
WEATHER SERVICE. USE DATA WITH CAUTION...ESPECIALLY
DEWPOINT OBSERVATIONS.

SCZ027-030-031-034>040-042>050-010600-
...SOUTH CAROLINA...

CITY           SKY/WX    TMP DP  RH WIND       PRES   REMARKS
N CHARLESTON   MOCLDY    75  72  90 NE5       30.03F
WATERFRONT PRK   N/A     79 N/A N/A N5          N/A
FORT JOHNSON   NOT AVBL
MOUNT PLEASANT DRIZZLE   73  73 100 CALM      30.03F
JOHNS ISLAND   PTCLDY    75  72  88 CALM      30.03F HAZE
PINOPOLIS        N/A     75  72  88 E12       29.97F
MONCKS CORNER  NOT AVBL
SUMMERVILLE    MOCLDY    72  72 100 CALM      30.05S
BEAUFORT MCAS  MOCLDY    75  73  93 E3        30.02F
BEAUFORT ARPT  MOCLDY    77  77 100 NE6       30.02S
HILTON HEAD IS PTCLDY    77  73  88 CALM      30.02F
GEORGETOWN     NOT AVBL
WALTERBORO     MOCLDY    73 N/A N/A NE3       30.04F
ORANGEBURG     CLOUDY    72  68  87 N3        30.05F
BARNWELL       CLOUDY    73  72  94 NE6       30.05F
AIKEN          FAIR      68  68 100 NE6       30.10F
MANNING        MOCLDY    73 N/A N/A E3        30.04F
KINGSTREE      NOT AVBL
COLUMBIA       CLOUDY    74  66  76 NE3       30.06F
SUMTER         NOT AVBL
FLORENCE       LGT RAIN  74  71  91 E8        30.06F
MYRTLE BEACH   CLOUDY    81  73  78 E14G23    30.05S THUNDER
N MYRTLE BEACH CLOUDY    82  73  74 E14       30.06F

$$

GAZ063-065-086>088-099>101-113>116-118-119-134-136>141-150-010600-
...GEORGIA...

CITY           SKY/WX    TMP DP  RH WIND       PRES   REMARKS
SAVANNAH ARPT  PTCLDY    77  74  90 CALM      30.01F
HUNTER AAF     NOT AVBL
FORT STEWART   NOT AVBL
STATESBORO     NOT AVBL
SYLVANIA       CLOUDY    74  74  99 E3        30.04F
CLAXTON        FAIR     N/A N/A N/A CALM      30.02S
THOMSON        CLOUDY    73  73 100 NE3       30.11F
AUGUSTA-BUSH   CLOUDY    73  68  84 NE5       30.04F
AUGUSTA-DANIEL CLOUDY    72  68  87 NE7       30.07S
SWAINSBORO     MOCLDY    77  77 100 E5        30.03F
VIDALIA          N/A     73  73 100 NE3       30.02F
ALMA           PTCLDY    74  69  85 E3        30.00S
WAYCROSS       PTCLDY    82  75  79 CALM      29.99F
JESUP          FAIR      77  73  88 CALM      30.00F
BRUNSWICK      CLEAR     82  72  69 SE3       30.00F
SAINT SIMONS   CLEAR     83  72  69 SE10      29.99F

$$

SCZ027-028-034-036>038-045-046-048>050-GAZ119-141-010600-
...LAKE AND SUPPLEMENTAL COASTAL OBSERVATIONS...

STATION/POSITION TIME  TEMP    WIND        PRES    WAVE   SWELL
                       AIR SEA DIR/SP/G            HT/PER HT/PER/DIR
                 (UTC) (F)     (DEG/KT/KT) (MB)    (FT/S) (FT/S/D)
UPR LAKE MARION  NOT AVBL
WINYAH BAY       0400   76      60/  6     1018.0S
LAKE MURRAY      0400   71      CALM  /  2 1017.9S
ACE BASIN NERRS  0400   74        CALM     1017.0S
FORT PULASKI     0500   82     130/  3/  4 1016.4F
SAPELO ISLAND    0400   83     140/  6     1016.0F

$$

ANZ835-935-AMZ111-154-330-350-352-354-374-450-454-472-010600-
...C-MAN AND BUOY OBSERVATIONS...

STATION/POSITION TIME  TEMP    WIND        PRES    WAVE   SWELL
                       AIR SEA DIR/SP/G            HT/PER HT/PER/DIR
                 (UTC) (F)     (DEG/KT/KT) (MB)    (FT/S) (FT/S/D)
FOLLY BEACH CMAN 0400   82     140/  9/ 10 1017.3F
BUOY 41004       0500   83 83  150/ 10/ 14 1015.9F   4/ 6   3/ 6
BUOY 41008       0500   84 85  140/ 12/ 14 1015.6F   2/ 5   2/100/ 8
5E ST. MARYS GA  0400      86                N/A     3/ 8
FRYING PAN BUOY  NOT AVBL
BUOY 41025       0500          VRB 14/ 17  1020.7R   4/ 6   2/140/ 7
CAPE LOOKOUT NC  0400   80     100/ 17/ 18 1020.6R
BUOY 41002       0423   81 81  160/ 10/ 12 1019.9F   4/ 7   3/120/ 7
BUOY 41010       0500   84 84  140/ 14/ 16 1016.9F   3/ 4   2/ 40/ 7
BUOY 41012       NOT AVBL
ST AUGUSTINE FL  0500   82     150/ 13/ 13 1016.1R
CAPERS NEARSHORE 0400   82     150/ 10/ 14   N/A
FRIPP NEARSHORE  NOT AVBL


$$


USA.gov is the U.S. government's official web portal to all federal, state and local government web resources and services.